DW9498 Weather Reports


Display with metric or nautical units.
time (UTC)temp
F
wind
direction
speed
MPH
gust
MPH
rain 1hr
in
rain 24hr
in
rain mn
in
humidity
%
barometer
mb
20260504050335 57 141 0.0 0.0 0.00 0.00 0.00 57 1006.2
20260504045328 58 141 0.0 0.0 0.00 0.00 0.00 55 1006.3
20260504044332 58 141 0.0 0.0 0.00 0.00 0.00 54 1006.3
20260504043359 58 141 0.0 0.0 0.00 0.00 0.00 53 1006.4
20260504042335 58 141 0.0 0.0 0.00 0.00 0.00 56 1006.6
20260504041340 58 141 0.0 0.0 0.00 0.00 0.00 56 1006.6
20260504040330 58 141 0.0 0.0 0.00 0.00 0.00 56 1006.8
20260504035340 59 141 0.0 0.0 0.00 0.00 0.00 54 1006.8
20260504034351 59 141 0.0 0.0 0.00 0.00 0.00 54 1006.9
20260504033339 60 141 0.0 0.0 0.00 0.00 0.00 54 1007.0
20260504032323 60 141 0.0 0.0 0.00 0.00 0.00 53 1007.0
20260504031358 60 141 0.0 0.0 0.00 0.00 0.00 52 1007.0
20260504030346 61 141 0.0 0.0 0.00 0.00 0.00 52 1007.1
20260504025337 61 141 0.0 0.0 0.00 0.00 0.00 51 1007.1
20260504024325 61 141 0.0 0.0 0.00 0.00 0.00 50 1007.1
20260504023359 62 141 0.0 0.0 0.00 0.00 0.00 49 1007.3
20260504022326 62 141 0.0 0.0 0.00 0.00 0.00 47 1007.3
20260504021335 63 141 0.0 0.0 0.00 0.00 0.00 46 1007.3
20260504020347 64 141 0.0 0.0 0.00 0.00 0.00 45 1007.4
20260504015341 65 141 0.0 0.0 0.00 0.00 0.00 43 1007.5
20260504014343 67 141 0.0 0.0 0.00 0.00 0.00 41 1007.5
20260504013323 69 141 0.0 0.0 0.00 0.00 0.00 40 1007.4
20260504012331 70 141 0.0 0.0 0.00 0.00 0.00 37 1007.4
20260504011337 71 141 0.0 1.0 0.00 0.00 0.00 36 1007.5
20260504010347 71 203 0.0 2.0 0.00 0.00 0.00 35 1007.5
20260504005331 72 246 0.0 3.0 0.00 0.00 0.00 35 1007.6
20260504004336 72 120 1.0 4.0 0.00 0.00 0.00 34 1007.7
20260504003325 73 219 1.0 3.0 0.00 0.00 0.00 32 1007.8
20260504002337 74 169 1.0 2.0 0.00 0.00 0.00 31 1007.8
20260504001331 74 195 1.0 2.0 0.00 0.00 0.00 31 1007.9
20260504000323 75 68 0.0 1.0 0.00 0.00 0.00 30 1008.0
20260503235334 75 357 1.0 3.0 0.00 0.00 0.00 29 1008.0
20260503234359 76 197 0.0 4.0 0.00 0.00 0.00 31 1008.0
20260503233348 77 2 1.0 4.0 0.00 0.00 0.00 29 1008.1
20260503232328 77 26 1.0 5.0 0.00 0.00 0.00 30 1008.2
20260503231336 78 6 1.0 9.0 0.00 0.00 0.00 29 1008.3
20260503230347 78 247 1.0 3.0 0.00 0.00 0.00 28 1008.2
20260503225332 78 269 1.0 4.0 0.00 0.00 0.00 28 1008.3
20260503224346 78 221 0.0 2.0 0.00 0.00 0.00 30 1008.3
20260503223412 78 143 1.0 3.0 0.00 0.00 0.00 28 1008.4
20260503222335 77 40 1.0 5.0 0.00 0.00 0.00 29 1008.5
20260503221341 78 344 0.0 5.0 0.00 0.00 0.00 29 1008.4
20260503220349 78 199 2.0 5.0 0.00 0.00 0.00 29 1008.6
20260503215334 77 173 1.0 5.0 0.00 0.00 0.00 30 1008.5
20260503214339 76 15 1.0 7.0 0.00 0.00 0.00 28 1009.0
20260503213349 78 45 3.0 6.0 0.00 0.00 0.00 30 1009.0
20260503212331 77 263 1.0 3.0 0.00 0.00 0.00 30 1009.0
20260503211401 76 263 1.0 4.0 0.00 0.00 0.00 30 1009.4
20260503210348 76 359 3.0 6.0 0.00 0.00 0.00 32 1009.6
20260503205334 74 269 3.0 6.0 0.00 0.00 0.00 31 1009.7
20260503204337 74 97 3.0 6.0 0.00 0.00 0.00 32 1009.9
20260503203325 75 359 3.0 8.0 0.00 0.00 0.00 31 1010.0
20260503202357 74 18 2.0 5.0 0.00 0.00 0.00 33 1010.0
20260503201340 75 15 2.0 5.0 0.00 0.00 0.00 33 1010.2
20260503200347 74 294 3.0 7.0 0.00 0.00 0.00 32 1010.2
20260503195330 73 20 1.0 7.0 0.00 0.00 0.00 32 1010.4
20260503194334 72 333 4.0 9.0 0.00 0.00 0.00 33 1010.5
20260503193348 73 26 3.0 7.0 0.00 0.00 0.00 33 1010.5
20260503192334 72 32 4.0 10.0 0.00 0.00 0.00 34 1010.7
20260503191339 74 10 5.0 9.0 0.00 0.00 0.00 31 1010.6
20260503190327 73 22 3.0 8.0 0.00 0.00 0.00 32 1010.8
20260503185339 73 31 2.0 9.0 0.00 0.00 0.00 34 1010.8
20260503184326 73 15 3.0 8.0 0.00 0.00 0.00 33 1010.9
20260503183355 72 3 3.0 10.0 0.00 0.00 0.00 34 1010.9
20260503182323 71 22 3.0 9.0 0.00 0.00 0.00 35 1011.0
20260503181340 71 24 3.0 9.0 0.00 0.00 0.00 36 1011.3
20260503180330 70 17 5.0 9.0 0.00 0.00 0.00 32 1011.4
20260503175404 70 3 4.0 9.0 0.00 0.00 0.00 35 1011.5
20260503174328 70 332 2.0 7.0 0.00 0.00 0.00 36 1011.6
20260503173338 70 33 4.0 9.0 0.00 0.00 0.00 33 1011.7
20260503172350 71 348 4.0 8.0 0.00 0.00 0.00 35 1011.7
20260503171335 70 28 2.0 6.0 0.00 0.00 0.00 39 1011.8
20260503170345 70 2 4.0 6.0 0.00 0.00 0.00 37 1011.8
20260503150338 62 94 1.0 6.0 0.00 0.00 0.00 48 1011.7
20260503131333 57 166 2.0 6.0 0.00 0.00 0.00 50 1010.8
20260503130323 56 96 1.0 7.0 0.00 0.00 0.00 51 1011.2
20260503110324 54 79 1.0 4.0 0.00 0.00 0.00 48 1010.7
20260503090351 55 154 2.0 4.0 0.00 0.00 0.00 46 1010.3
20260503081340 55 178 2.0 5.0 0.00 0.00 0.00 45 1010.8
20260503080329 55 220 2.0 8.0 0.00 0.00 0.00 44 1010.8
20260503072328 55 167 2.0 5.0 0.00 0.00 0.00 45 1011.1
20260503071332 55 223 2.0 4.0 0.00 0.00 0.00 45 1011.2
20260503070325 55 206 1.0 3.0 0.00 0.00 0.00 44 1011.2